Change the Weather History Date:

Tuesday, July 30, 2013

  Actual Average Record
Temperature  
Mean Temperature 65 °F -  
Max Temperature 73 °F 82 °F 87 °F (2012)
Min Temperature 57 °F 60 °F 48 °F (2014)
Growing Degree Days 15 (Base 50)    
Moisture  
Dew Point 63 °F    
Average Humidity 93    
Maximum Humidity 100    
Minimum Humidity 69    
Precipitation  
Precipitation 0.00 in - - ()
Sea Level Pressure  
Sea Level Pressure 30.10 in    
Wind  
Wind Speed 6 mph (NNE)    
Max Wind Speed 13 mph    
Max Gust Speed 18 mph    
Visibility 9 miles    
Events      
Averages and records for this station are not official NWS values.
T = Trace of Precipitation, MM = Missing Value Source: NWS Daily Summary

Daily Weather History Graph

Daily Weather History Graph

Search for Another Location

Airport or City:

Trip Planner

Search our weather history database for the weather conditions in past years. The results will help you decide how hot, cold, wet, or windy it might be!

Date:

Astronomy

Jul. 30, 2013 Rise Set
Actual Time 6:14 AM CDT 8:54 PM CDT
Civil Twilight 5:41 AM CDT 9:27 PM CDT
Nautical Twilight 4:59 AM CDT 10:08 PM CDT
Astronomical Twilight 4:11 AM CDT 10:56 PM CDT
Moon 12:35 AM CDT (7/30) 3:14 PM CDT (7/30)
Length of Visible Light 15h 45m
Length of Day
14h 39m
Last Quarter, 41% of the Moon is Illuminated
Jul 30
Last Quarter
Aug 6
New
Aug 14
First Quarter
Aug 20
Full
Aug 28
Last Quarter

Hourly Weather History & Observations

Time (CDT) Temp. Dew Point Humidity Pressure Visibility Wind Dir Wind Speed Gust Speed Precip Events Conditions
12:10 AM 60.8 °F 60.8 °F 100% 30.07 in 10.0 mi South 11.5 mph - N/A   Overcast
12:30 AM 59.0 °F 59.0 °F 100% 30.07 in 10.0 mi South 9.2 mph - N/A   Overcast
12:50 AM 59.0 °F 59.0 °F 100% 30.07 in 3.0 mi South 8.1 mph - N/A   Overcast
1:10 AM 59.0 °F 59.0 °F 100% 30.07 in 1.8 mi South 6.9 mph - N/A   Overcast
1:30 AM 59.0 °F 59.0 °F 100% 30.07 in 1.5 mi SSW 5.8 mph - N/A   Overcast
1:50 AM 59.0 °F 59.0 °F 100% 30.07 in 1.8 mi South 4.6 mph - N/A   Overcast
2:10 AM 59.0 °F 59.0 °F 100% 30.07 in 3.0 mi SSW 5.8 mph - N/A   Overcast
2:20 AM 59.0 °F 59.0 °F 100% 30.07 in 3.0 mi SW 5.8 mph - N/A   Overcast
7:40 AM 59.0 °F 59.0 °F 100% 30.11 in 1.5 mi NW 3.5 mph - N/A   Overcast
7:50 AM 60.8 °F 60.8 °F 100% 30.11 in 1.0 mi Calm Calm - N/A   Overcast
8:10 AM 60.8 °F 60.8 °F 100% 30.11 in 3.0 mi Calm Calm - N/A   Overcast
8:30 AM 60.8 °F 60.8 °F 100% 30.11 in 8.0 mi NW 4.6 mph - N/A   Overcast
8:50 AM 62.6 °F 62.6 °F 100% 30.12 in 10.0 mi NW 3.5 mph - N/A   Overcast
9:10 AM 62.6 °F 62.6 °F 100% 30.12 in 10.0 mi NNW 4.6 mph - N/A   Overcast
9:30 AM 62.6 °F 62.6 °F 100% 30.11 in 10.0 mi NNW 4.6 mph - N/A   Overcast
9:50 AM 62.6 °F 62.6 °F 100% 30.11 in 10.0 mi North 3.5 mph - N/A   Overcast
10:10 AM 62.6 °F 62.6 °F 100% 30.12 in 10.0 mi NNE 5.8 mph - N/A   Overcast
10:30 AM 64.4 °F 64.4 °F 100% 30.12 in 10.0 mi Calm Calm - N/A   Overcast
10:50 AM 64.4 °F 64.4 °F 100% 30.12 in 10.0 mi NE 5.8 mph - N/A   Overcast
11:10 AM 64.4 °F 64.4 °F 100% 30.12 in 10.0 mi East 3.5 mph - N/A   Overcast
11:30 AM 64.4 °F 64.4 °F 100% 30.12 in 10.0 mi East 4.6 mph - N/A   Overcast
11:50 AM 66.2 °F 66.2 °F 100% 30.12 in 10.0 mi Calm Calm - N/A   Overcast
12:10 PM 66.2 °F 66.2 °F 100% 30.12 in 10.0 mi SE 3.5 mph - N/A   Overcast
12:30 PM 66.2 °F 66.2 °F 100% 30.12 in 10.0 mi Calm Calm - N/A   Overcast
12:50 PM 66.2 °F 66.2 °F 100% 30.12 in 10.0 mi Calm Calm - N/A   Overcast
1:10 PM 68.0 °F 66.2 °F 94% 30.11 in 10.0 mi Calm Calm - N/A   Overcast
1:30 PM 68.0 °F 66.2 °F 94% 30.11 in 10.0 mi SSE 3.5 mph - N/A   Overcast
1:50 PM 69.8 °F 66.2 °F 88% 30.11 in 10.0 mi ENE 3.5 mph - N/A   Overcast
2:10 PM 71.6 °F 64.4 °F 78% 30.11 in 10.0 mi Calm Calm - N/A   Mostly Cloudy
2:30 PM 71.6 °F 66.2 °F 83% 30.11 in 10.0 mi Calm Calm - N/A   Mostly Cloudy
2:50 PM 71.6 °F 64.4 °F 78% 30.10 in 10.0 mi ENE 3.5 mph - N/A   Mostly Cloudy
3:10 PM 73.4 °F 62.6 °F 69% 30.10 in 10.0 mi Calm Calm - N/A   Partly Cloudy
3:30 PM 73.4 °F 62.6 °F 69% 30.11 in 10.0 mi North 5.8 mph - N/A   Scattered Clouds
3:50 PM 73.4 °F 64.4 °F 73% 30.11 in 10.0 mi NNW 3.5 mph - N/A   Mostly Cloudy
4:10 PM 73.4 °F 64.4 °F 73% 30.11 in 10.0 mi NNE 4.6 mph - N/A   Mostly Cloudy
4:30 PM 73.4 °F 64.4 °F 73% 30.10 in 10.0 mi ENE 3.5 mph - N/A   Mostly Cloudy
4:50 PM 71.6 °F 66.2 °F 83% 30.10 in 10.0 mi North 9.2 mph - N/A   Mostly Cloudy
5:10 PM 71.6 °F 64.4 °F 78% 30.11 in 10.0 mi NNW 12.7 mph - N/A   Mostly Cloudy
5:30 PM 71.6 °F 64.4 °F 78% 30.12 in 10.0 mi NNW 12.7 mph - N/A   Partly Cloudy
5:50 PM 71.6 °F 62.6 °F 73% 30.12 in 10.0 mi North 10.4 mph 18.4 mph N/A   Clear
6:10 PM 71.6 °F 62.6 °F 73% 30.11 in 10.0 mi North 10.4 mph 18.4 mph N/A   Clear
6:30 PM 71.6 °F 62.6 °F 73% 30.11 in 10.0 mi NNE 5.8 mph - N/A   Clear
6:50 PM 69.8 °F 64.4 °F 83% 30.11 in 10.0 mi NE 4.6 mph - N/A   Clear
7:10 PM 68.0 °F 66.2 °F 94% 30.12 in 10.0 mi North 4.6 mph - N/A   Clear
7:30 PM 66.2 °F 66.2 °F 100% 30.12 in 10.0 mi North 4.6 mph - N/A   Partly Cloudy
7:50 PM 66.2 °F 66.2 °F 100% 30.13 in 10.0 mi North 5.8 mph - N/A   Partly Cloudy
8:10 PM 66.2 °F 66.2 °F 100% 30.12 in 10.0 mi ENE 3.5 mph - N/A   Clear
8:30 PM 66.2 °F 66.2 °F 100% 30.09 in 10.0 mi ESE 3.5 mph - N/A   Scattered Clouds
8:50 PM 64.4 °F 64.4 °F 100% 30.07 in 10.0 mi South 9.2 mph - N/A   Partly Cloudy
9:10 PM 64.4 °F 64.4 °F 100% 30.08 in 10.0 mi SW 3.5 mph - N/A   Clear
9:30 PM 62.6 °F 62.6 °F 100% 30.09 in 10.0 mi SW 4.6 mph - N/A   Partly Cloudy
9:50 PM 64.4 °F 64.4 °F 100% 30.09 in 10.0 mi SW 6.9 mph - N/A   Scattered Clouds
10:10 PM 62.6 °F 62.6 °F 100% 30.09 in 10.0 mi Calm Calm - N/A   Partly Cloudy
10:30 PM 62.6 °F 62.6 °F 100% 30.09 in 10.0 mi SSW 6.9 mph - N/A   Clear
10:50 PM 60.8 °F 60.8 °F 100% 30.10 in 10.0 mi SW 6.9 mph - N/A   Clear
11:10 PM 60.8 °F 60.8 °F 100% 30.11 in 10.0 mi WSW 5.8 mph - N/A   Clear
11:30 PM 57.2 °F 57.2 °F 100% 30.13 in 10.0 mi NNE 8.1 mph - N/A   Clear
11:50 PM 57.2 °F 57.2 °F 100% 30.12 in 10.0 mi NNE 6.9 mph - N/A   Clear